Year,Month,Day,Hour,Minute,Value (Times are PST for temperature in C)
2015,06,28,00,00,24.10
2015,06,28,00,01,24.10
2015,06,28,00,02,24.10
2015,06,28,00,03,24.10
2015,06,28,00,04,24.10
2015,06,28,00,05,24.10
2015,06,28,00,06,24.10
2015,06,28,00,07,24.00
2015,06,28,00,08,24.00
2015,06,28,00,09,24.00
2015,06,28,00,10,23.90
2015,06,28,00,11,23.90
2015,06,28,00,12,23.90
2015,06,28,00,13,23.90
2015,06,28,00,14,23.90
2015,06,28,00,15,23.90
2015,06,28,00,16,23.90
2015,06,28,00,17,23.90
2015,06,28,00,18,23.90
2015,06,28,00,19,23.90
2015,06,28,00,20,23.90
2015,06,28,00,21,23.80
2015,06,28,00,22,23.80
2015,06,28,00,23,23.80
2015,06,28,00,24,23.80
2015,06,28,00,25,23.80
2015,06,28,00,26,23.80
2015,06,28,00,27,23.80
2015,06,28,00,28,23.80
2015,06,28,00,29,23.80
2015,06,28,00,30,23.80
2015,06,28,00,31,23.80
2015,06,28,00,32,23.80
2015,06,28,00,33,23.80
2015,06,28,00,34,23.80
2015,06,28,00,35,23.90
2015,06,28,00,36,23.90
2015,06,28,00,37,23.90
2015,06,28,00,38,23.90
2015,06,28,00,39,23.90
2015,06,28,00,40,23.90
2015,06,28,00,41,23.90
2015,06,28,00,42,23.90
2015,06,28,00,43,23.90
2015,06,28,00,44,23.90
2015,06,28,00,45,23.90
2015,06,28,00,46,23.90
2015,06,28,00,47,23.90
2015,06,28,00,48,23.90
2015,06,28,00,49,23.90
2015,06,28,00,50,23.90
2015,06,28,00,51,23.90
2015,06,28,00,52,23.90
2015,06,28,00,53,23.90
2015,06,28,00,54,23.90
2015,06,28,00,55,23.90
2015,06,28,00,56,23.80
2015,06,28,00,57,23.80
2015,06,28,00,58,23.80
2015,06,28,00,59,23.80
2015,06,28,01,00,23.80
2015,06,28,01,01,23.70
2015,06,28,01,02,23.70
2015,06,28,01,03,23.70
2015,06,28,01,04,23.70
2015,06,28,01,05,23.70
2015,06,28,01,06,23.70
2015,06,28,01,07,23.70
2015,06,28,01,08,23.70
2015,06,28,01,09,23.70
2015,06,28,01,10,23.70
2015,06,28,01,11,23.70
2015,06,28,01,12,23.70
2015,06,28,01,13,23.70
2015,06,28,01,14,23.70
2015,06,28,01,15,23.70
2015,06,28,01,16,23.70
2015,06,28,01,17,23.70
2015,06,28,01,18,23.70
2015,06,28,01,19,23.80
2015,06,28,01,20,23.80
2015,06,28,01,21,23.80
2015,06,28,01,22,23.80
2015,06,28,01,23,23.80
2015,06,28,01,24,23.80
2015,06,28,01,25,23.80
2015,06,28,01,26,23.80
2015,06,28,01,27,23.80
2015,06,28,01,28,23.80
2015,06,28,01,29,23.80
2015,06,28,01,30,23.80
2015,06,28,01,31,23.80
2015,06,28,01,32,23.80
2015,06,28,01,33,23.80
2015,06,28,01,34,23.90
2015,06,28,01,35,23.90
2015,06,28,01,36,23.90
2015,06,28,01,37,23.90
2015,06,28,01,38,23.90
2015,06,28,01,39,23.80
2015,06,28,01,40,23.80
2015,06,28,01,41,23.80
2015,06,28,01,42,23.80
2015,06,28,01,43,23.80
2015,06,28,01,44,23.80
2015,06,28,01,45,23.80
2015,06,28,01,46,23.80
2015,06,28,01,47,23.70
2015,06,28,01,48,23.70
2015,06,28,01,49,23.70
2015,06,28,01,50,23.70
2015,06,28,01,51,23.70
2015,06,28,01,52,23.70
2015,06,28,01,53,23.70
2015,06,28,01,54,23.70
2015,06,28,01,55,23.70
2015,06,28,01,56,23.70
2015,06,28,01,57,23.70
2015,06,28,01,58,23.70
2015,06,28,01,59,23.70
2015,06,28,02,00,23.70
2015,06,28,02,01,23.70
2015,06,28,02,02,23.70
2015,06,28,02,03,23.70
2015,06,28,02,04,23.70
2015,06,28,02,05,23.70
2015,06,28,02,06,23.70
2015,06,28,02,07,23.60
2015,06,28,02,08,23.60
2015,06,28,02,09,23.60
2015,06,28,02,10,23.50
2015,06,28,02,11,23.50
2015,06,28,02,12,23.40
2015,06,28,02,13,23.40
2015,06,28,02,14,23.40
2015,06,28,02,15,23.40
2015,06,28,02,16,23.30
2015,06,28,02,17,23.30
2015,06,28,02,18,23.20
2015,06,28,02,19,23.20
2015,06,28,02,20,23.10
2015,06,28,02,21,23.10
2015,06,28,02,22,23.00
2015,06,28,02,23,22.90
2015,06,28,02,24,22.80
2015,06,28,02,25,22.70
2015,06,28,02,26,22.60
2015,06,28,02,27,22.40
2015,06,28,02,28,22.30
2015,06,28,02,29,22.20
2015,06,28,02,30,22.10
2015,06,28,02,31,22.00
2015,06,28,02,32,21.90
2015,06,28,02,33,21.90
2015,06,28,02,34,21.80
2015,06,28,02,35,21.70
2015,06,28,02,36,21.70
2015,06,28,02,37,21.70
2015,06,28,02,38,21.80
2015,06,28,02,39,21.80
2015,06,28,02,40,21.80
2015,06,28,02,41,21.80
2015,06,28,02,42,21.90
2015,06,28,02,43,22.00
2015,06,28,02,44,22.10
2015,06,28,02,45,22.20
2015,06,28,02,46,22.20
2015,06,28,02,47,22.20
2015,06,28,02,48,22.20
2015,06,28,02,49,22.20
2015,06,28,02,50,22.20
2015,06,28,02,51,22.20
2015,06,28,02,52,22.30
2015,06,28,02,53,22.30
2015,06,28,02,54,22.30
2015,06,28,02,55,22.30
2015,06,28,02,56,22.30
2015,06,28,02,57,22.20
2015,06,28,02,58,22.20
2015,06,28,02,59,22.20
2015,06,28,03,00,22.20
2015,06,28,03,01,22.20
2015,06,28,03,02,22.20
2015,06,28,03,03,22.10
2015,06,28,03,04,22.00
2015,06,28,03,05,21.90
2015,06,28,03,06,21.80
2015,06,28,03,07,21.70
2015,06,28,03,08,21.60
2015,06,28,03,09,21.50
2015,06,28,03,10,21.40
2015,06,28,03,11,21.30
2015,06,28,03,12,21.30
2015,06,28,03,13,21.20
2015,06,28,03,14,21.10
2015,06,28,03,15,21.00
2015,06,28,03,16,20.90
2015,06,28,03,17,20.80
2015,06,28,03,18,20.70
2015,06,28,03,19,20.70
2015,06,28,03,20,20.70
2015,06,28,03,21,20.70
2015,06,28,03,22,20.70
2015,06,28,03,23,20.80
2015,06,28,03,24,20.80
2015,06,28,03,25,20.90
2015,06,28,03,26,21.00
2015,06,28,03,27,21.10
2015,06,28,03,28,21.20
2015,06,28,03,29,21.30
2015,06,28,03,30,21.40
2015,06,28,03,31,21.40
2015,06,28,03,32,21.50
2015,06,28,03,33,21.60
2015,06,28,03,34,21.60
2015,06,28,03,35,21.60
2015,06,28,03,36,21.60
2015,06,28,03,37,21.50
2015,06,28,03,38,21.40
2015,06,28,03,39,21.30
2015,06,28,03,40,21.20
2015,06,28,03,41,21.20
2015,06,28,03,42,21.10
2015,06,28,03,43,21.00
2015,06,28,03,44,20.90
2015,06,28,03,45,20.80
2015,06,28,03,46,20.70
2015,06,28,03,47,20.60
2015,06,28,03,48,20.50
2015,06,28,03,49,20.40
2015,06,28,03,50,20.30
2015,06,28,03,51,20.30
2015,06,28,03,52,20.20
2015,06,28,03,53,20.20
2015,06,28,03,54,20.20
2015,06,28,03,55,20.30
2015,06,28,03,56,20.30
2015,06,28,03,57,20.40
2015,06,28,03,58,20.50
2015,06,28,03,59,20.60
2015,06,28,04,00,20.70
2015,06,28,04,01,20.70
2015,06,28,04,02,20.80
2015,06,28,04,03,20.80
2015,06,28,04,04,20.90
2015,06,28,04,05,20.90
2015,06,28,04,06,20.90
2015,06,28,04,07,20.90
2015,06,28,04,08,20.90
2015,06,28,04,09,20.90
2015,06,28,04,10,20.90
2015,06,28,04,11,20.90
2015,06,28,04,12,20.90
2015,06,28,04,13,20.90
2015,06,28,04,14,20.80
2015,06,28,04,15,20.80
2015,06,28,04,16,20.80
2015,06,28,04,17,20.70
2015,06,28,04,18,20.60
2015,06,28,04,19,20.50
2015,06,28,04,20,20.40
2015,06,28,04,21,20.30
2015,06,28,04,22,20.20
2015,06,28,04,23,20.10
2015,06,28,04,24,20.10
2015,06,28,04,25,20.00
2015,06,28,04,26,20.00
2015,06,28,04,27,19.90
2015,06,28,04,28,19.90
2015,06,28,04,29,19.80
2015,06,28,04,30,19.70
2015,06,28,04,31,19.60
2015,06,28,04,32,19.60
2015,06,28,04,33,19.50
2015,06,28,04,34,19.40
2015,06,28,04,35,19.30
2015,06,28,04,36,19.30
2015,06,28,04,37,19.20
2015,06,28,04,38,19.20
2015,06,28,04,39,19.10
2015,06,28,04,40,19.00
2015,06,28,04,41,18.90
2015,06,28,04,42,18.90
2015,06,28,04,43,18.80
2015,06,28,04,44,18.80
2015,06,28,04,45,18.70
2015,06,28,04,46,18.70
2015,06,28,04,47,18.70
2015,06,28,04,48,18.60
2015,06,28,04,49,18.60
2015,06,28,04,50,18.50
2015,06,28,04,51,18.50
2015,06,28,04,52,18.40
2015,06,28,04,53,18.40
2015,06,28,04,54,18.40
2015,06,28,04,55,18.30
2015,06,28,04,56,18.30
2015,06,28,04,57,18.30
2015,06,28,04,58,18.20
2015,06,28,04,59,18.20
2015,06,28,05,00,18.20
2015,06,28,05,01,18.20
2015,06,28,05,02,18.10
2015,06,28,05,03,18.10
2015,06,28,05,04,18.10
2015,06,28,05,05,18.00
2015,06,28,05,06,18.00
2015,06,28,05,07,17.90
2015,06,28,05,08,17.90
2015,06,28,05,09,17.90
2015,06,28,05,10,17.90
2015,06,28,05,11,17.90
2015,06,28,05,12,17.90
2015,06,28,05,13,17.90
2015,06,28,05,14,17.90
2015,06,28,05,15,17.90
2015,06,28,05,16,17.90
2015,06,28,05,17,17.80
2015,06,28,05,18,17.80
2015,06,28,05,19,17.80
2015,06,28,05,20,17.80
2015,06,28,05,21,17.80
2015,06,28,05,22,17.70
2015,06,28,05,23,17.70
2015,06,28,05,24,17.70
2015,06,28,05,25,17.70
2015,06,28,05,26,17.70
2015,06,28,05,27,17.70
2015,06,28,05,28,17.80
2015,06,28,05,29,17.80
2015,06,28,05,30,17.80
2015,06,28,05,31,17.80
2015,06,28,05,32,17.90
2015,06,28,05,33,17.90
2015,06,28,05,34,17.90
2015,06,28,05,35,17.90
2015,06,28,05,36,18.00
2015,06,28,05,37,18.00
2015,06,28,05,38,18.10
2015,06,28,05,39,18.10
2015,06,28,05,40,18.20
2015,06,28,05,41,18.30
2015,06,28,05,42,18.30
2015,06,28,05,43,18.40
2015,06,28,05,44,18.40
2015,06,28,05,45,18.40
2015,06,28,05,46,18.50
2015,06,28,05,47,18.50
2015,06,28,05,48,18.50
2015,06,28,05,49,18.50
2015,06,28,05,50,18.50
2015,06,28,05,51,18.50
2015,06,28,05,52,18.50
2015,06,28,05,53,18.50
2015,06,28,05,54,18.50
2015,06,28,05,55,18.50
2015,06,28,05,56,18.50
2015,06,28,05,57,18.50
2015,06,28,05,58,18.50
2015,06,28,05,59,18.60
2015,06,28,06,00,18.60
2015,06,28,06,01,18.70
2015,06,28,06,02,18.70
2015,06,28,06,03,18.80
2015,06,28,06,04,18.80
2015,06,28,06,05,18.90
2015,06,28,06,06,18.90
2015,06,28,06,07,19.10
2015,06,28,06,08,19.20
2015,06,28,06,09,19.30
2015,06,28,06,10,19.30
2015,06,28,06,11,19.40
2015,06,28,06,12,19.50
2015,06,28,06,13,19.60
2015,06,28,06,14,19.60
2015,06,28,06,15,19.70
2015,06,28,06,16,19.70
2015,06,28,06,17,19.80
2015,06,28,06,18,19.80
2015,06,28,06,19,19.90
2015,06,28,06,20,19.90
2015,06,28,06,21,20.00
2015,06,28,06,22,20.00
2015,06,28,06,23,20.10
2015,06,28,06,24,20.10
2015,06,28,06,25,20.10
2015,06,28,06,26,20.20
2015,06,28,06,27,20.20
2015,06,28,06,28,20.20
2015,06,28,06,29,20.30
2015,06,28,06,30,20.30
2015,06,28,06,31,20.30
2015,06,28,06,32,20.30
2015,06,28,06,33,20.30
2015,06,28,06,34,20.30
2015,06,28,06,35,20.30
2015,06,28,06,36,20.30
2015,06,28,06,37,20.30
2015,06,28,06,38,20.30
2015,06,28,06,39,20.30
2015,06,28,06,40,20.30
2015,06,28,06,41,20.30
2015,06,28,06,42,20.30
2015,06,28,06,43,20.30
2015,06,28,06,44,20.30
2015,06,28,06,45,20.30
2015,06,28,06,46,20.30
2015,06,28,06,47,20.30
2015,06,28,06,48,20.30
2015,06,28,06,49,20.30
2015,06,28,06,50,20.30
2015,06,28,06,51,20.30
2015,06,28,06,52,20.30
2015,06,28,06,53,20.40
2015,06,28,06,54,20.40
2015,06,28,06,55,20.40
2015,06,28,06,56,20.40
2015,06,28,06,57,20.50
2015,06,28,06,58,20.50
2015,06,28,06,59,20.60
2015,06,28,07,00,20.60
2015,06,28,07,01,20.70
2015,06,28,07,02,20.70
2015,06,28,07,03,20.70
2015,06,28,07,04,20.80
2015,06,28,07,05,20.80
2015,06,28,07,06,20.80
2015,06,28,07,07,20.80
2015,06,28,07,08,20.80
2015,06,28,07,09,20.90
2015,06,28,07,10,20.90
2015,06,28,07,11,20.90
2015,06,28,07,12,20.90
2015,06,28,07,13,21.00
2015,06,28,07,14,21.10
2015,06,28,07,15,21.10
2015,06,28,07,16,21.10
2015,06,28,07,17,21.20
2015,06,28,07,18,21.20
2015,06,28,07,19,21.30
2015,06,28,07,20,21.30
2015,06,28,07,21,21.30
2015,06,28,07,22,21.40
2015,06,28,07,23,21.40
2015,06,28,07,24,21.50
2015,06,28,07,25,21.50
2015,06,28,07,26,21.60
2015,06,28,07,27,21.70
2015,06,28,07,28,21.80
2015,06,28,07,29,21.80
2015,06,28,07,30,21.90
2015,06,28,07,31,22.10
2015,06,28,07,32,22.20
2015,06,28,07,33,22.30
2015,06,28,07,34,22.40
2015,06,28,07,35,22.50
2015,06,28,07,36,22.60
2015,06,28,07,37,22.70
2015,06,28,07,38,22.80
2015,06,28,07,39,22.90
2015,06,28,07,40,23.00
2015,06,28,07,41,23.00
2015,06,28,07,42,23.10
2015,06,28,07,43,23.20
2015,06,28,07,44,23.30
2015,06,28,07,45,23.30
2015,06,28,07,46,23.40
2015,06,28,07,47,23.40
2015,06,28,07,48,23.50
2015,06,28,07,49,23.50
2015,06,28,07,50,23.50
2015,06,28,07,51,23.50
2015,06,28,07,52,23.40
2015,06,28,07,53,23.40
2015,06,28,07,54,23.40
2015,06,28,07,55,23.40
2015,06,28,07,56,23.30
2015,06,28,07,57,23.30
2015,06,28,07,58,23.20
2015,06,28,07,59,23.20
2015,06,28,08,00,23.10
2015,06,28,08,01,23.10
2015,06,28,08,02,23.10
2015,06,28,08,03,23.00
2015,06,28,08,04,23.10
2015,06,28,08,05,23.10
2015,06,28,08,06,23.10
2015,06,28,08,07,23.10
2015,06,28,08,08,23.20
2015,06,28,08,09,23.20
2015,06,28,08,10,23.20
2015,06,28,08,11,23.30
2015,06,28,08,12,23.30
2015,06,28,08,13,23.40
2015,06,28,08,14,23.40
2015,06,28,08,15,23.40
2015,06,28,08,16,23.40
2015,06,28,08,17,23.50
2015,06,28,08,18,23.50
2015,06,28,08,19,23.60
2015,06,28,08,20,23.60
2015,06,28,08,21,23.60
2015,06,28,08,22,23.70
2015,06,28,08,23,23.70
2015,06,28,08,24,23.80
2015,06,28,08,25,23.80
2015,06,28,08,26,23.90
2015,06,28,08,27,23.90
2015,06,28,08,28,24.00
2015,06,28,08,29,24.10
2015,06,28,08,30,24.20
2015,06,28,08,31,24.30
2015,06,28,08,32,24.40
2015,06,28,08,33,24.50
2015,06,28,08,34,24.50
2015,06,28,08,35,24.60
2015,06,28,08,36,24.70
2015,06,28,08,37,24.80
2015,06,28,08,38,24.90
2015,06,28,08,39,24.90
2015,06,28,08,40,24.90
2015,06,28,08,41,24.90
2015,06,28,08,42,24.90
2015,06,28,08,43,24.90
2015,06,28,08,44,24.90
2015,06,28,08,45,24.90
2015,06,28,08,46,24.90
2015,06,28,08,47,25.00
2015,06,28,08,48,25.00
2015,06,28,08,49,25.10
2015,06,28,08,50,25.10
2015,06,28,08,51,25.10
2015,06,28,08,52,25.20
2015,06,28,08,53,25.20
2015,06,28,08,54,25.20
2015,06,28,08,55,25.20
2015,06,28,08,56,25.20
2015,06,28,08,57,25.10
2015,06,28,08,58,25.10
2015,06,28,08,59,25.00
2015,06,28,09,00,25.00
2015,06,28,09,01,24.90
2015,06,28,09,02,24.90
2015,06,28,09,03,24.90
2015,06,28,09,04,24.90
2015,06,28,09,05,24.90
2015,06,28,09,06,24.90
2015,06,28,09,07,24.90
2015,06,28,09,08,24.90
2015,06,28,09,09,24.90
2015,06,28,09,10,25.00
2015,06,28,09,11,25.00
2015,06,28,09,12,25.00
2015,06,28,09,13,25.00
2015,06,28,09,14,25.00
2015,06,28,09,15,25.10
2015,06,28,09,16,25.10
2015,06,28,09,17,25.10
2015,06,28,09,18,25.20
2015,06,28,09,19,25.20
2015,06,28,09,20,25.20
2015,06,28,09,21,25.20
2015,06,28,09,22,25.20
2015,06,28,09,23,25.20
2015,06,28,09,24,25.20
2015,06,28,09,25,25.20
2015,06,28,09,26,25.30
2015,06,28,09,27,25.30
2015,06,28,09,28,25.20
2015,06,28,09,29,25.20
2015,06,28,09,30,25.10
2015,06,28,09,31,25.10
2015,06,28,09,32,25.10
2015,06,28,09,33,25.00
2015,06,28,09,34,25.00
2015,06,28,09,35,25.10
2015,06,28,09,36,25.10
2015,06,28,09,37,25.20
2015,06,28,09,38,25.20
2015,06,28,09,39,25.20
2015,06,28,09,40,25.20
2015,06,28,09,41,25.20
2015,06,28,09,42,25.20
2015,06,28,09,43,25.20
2015,06,28,09,44,25.20
2015,06,28,09,45,25.20
2015,06,28,09,46,25.20
2015,06,28,09,47,25.30
2015,06,28,09,48,25.30
2015,06,28,09,49,25.30
2015,06,28,09,50,25.30
2015,06,28,09,51,25.30
2015,06,28,09,52,25.40
2015,06,28,09,53,25.40
2015,06,28,09,54,25.40
2015,06,28,09,55,25.40
2015,06,28,09,56,25.40
2015,06,28,09,57,25.40
2015,06,28,09,58,25.50
2015,06,28,09,59,25.60
2015,06,28,10,00,25.60
2015,06,28,10,01,25.70
2015,06,28,10,02,25.80
2015,06,28,10,03,25.80
2015,06,28,10,04,25.90
2015,06,28,10,05,25.90
2015,06,28,10,06,26.00
2015,06,28,10,07,26.20
2015,06,28,10,08,26.30
2015,06,28,10,09,26.40
2015,06,28,10,10,26.40
2015,06,28,10,11,26.40
2015,06,28,10,12,26.40
2015,06,28,10,13,26.30
2015,06,28,10,14,26.30
2015,06,28,10,15,26.30
2015,06,28,10,16,26.30
2015,06,28,10,17,26.20
2015,06,28,10,18,26.10
2015,06,28,10,19,26.00
2015,06,28,10,20,25.90
2015,06,28,10,21,26.00
2015,06,28,10,22,26.00
2015,06,28,10,23,26.00
2015,06,28,10,24,25.90
2015,06,28,10,25,25.90
2015,06,28,10,26,25.90
2015,06,28,10,27,25.90
2015,06,28,10,28,25.90
2015,06,28,10,29,25.90
2015,06,28,10,30,25.90
2015,06,28,10,31,25.90
2015,06,28,10,32,25.90
2015,06,28,10,33,25.90
2015,06,28,10,34,25.80
2015,06,28,10,35,25.80
2015,06,28,10,36,25.70
2015,06,28,10,37,25.70
2015,06,28,10,38,25.60
2015,06,28,10,39,25.60
2015,06,28,10,40,25.60
2015,06,28,10,41,25.60
2015,06,28,10,42,25.60
2015,06,28,10,43,25.60
2015,06,28,10,44,25.70
2015,06,28,10,45,25.70
2015,06,28,10,46,25.70
2015,06,28,10,47,25.70
2015,06,28,10,48,25.70
2015,06,28,10,49,25.70
2015,06,28,10,50,25.70
2015,06,28,10,51,25.70
2015,06,28,10,52,25.70
2015,06,28,10,53,25.80
2015,06,28,10,54,25.80
2015,06,28,10,55,25.80
2015,06,28,10,56,25.80
2015,06,28,10,57,25.80
2015,06,28,10,58,25.70
2015,06,28,10,59,25.60
2015,06,28,11,00,25.60
2015,06,28,11,01,25.60
2015,06,28,11,02,25.60
2015,06,28,11,03,25.60
2015,06,28,11,04,25.60
2015,06,28,11,05,25.70
2015,06,28,11,06,25.70
2015,06,28,11,07,25.80
2015,06,28,11,08,25.80
2015,06,28,11,09,25.90
2015,06,28,11,10,25.90
2015,06,28,11,11,25.90
2015,06,28,11,12,26.00
2015,06,28,11,13,26.00
2015,06,28,11,14,26.10
2015,06,28,11,15,26.20
2015,06,28,11,16,26.20
2015,06,28,11,17,26.30
2015,06,28,11,18,26.40
2015,06,28,11,19,26.40
2015,06,28,11,20,26.50
2015,06,28,11,21,26.50
2015,06,28,11,22,26.50
2015,06,28,11,23,26.50
2015,06,28,11,24,26.50
2015,06,28,11,25,26.50
2015,06,28,11,26,26.50
2015,06,28,11,27,26.40
2015,06,28,11,28,26.40
2015,06,28,11,29,26.40
2015,06,28,11,30,26.40
2015,06,28,11,31,26.50
2015,06,28,11,32,26.50
2015,06,28,11,33,26.60
2015,06,28,11,34,26.70
2015,06,28,11,35,26.80
2015,06,28,11,36,26.90
2015,06,28,11,37,27.00
2015,06,28,11,38,27.10
2015,06,28,11,39,27.20
2015,06,28,11,40,27.30
2015,06,28,11,41,27.30
2015,06,28,11,42,27.30
2015,06,28,11,43,27.30
2015,06,28,11,44,27.30
2015,06,28,11,45,27.30
2015,06,28,11,46,27.30
2015,06,28,11,47,27.30
2015,06,28,11,48,27.30
2015,06,28,11,49,27.30
2015,06,28,11,50,27.40
2015,06,28,11,51,27.40
2015,06,28,11,52,27.40
2015,06,28,11,53,27.40
2015,06,28,11,54,27.40
2015,06,28,11,55,27.30
2015,06,28,11,56,27.30
2015,06,28,11,57,27.30
2015,06,28,11,58,27.30
2015,06,28,11,59,27.40
2015,06,28,12,00,27.40
2015,06,28,12,01,27.40
2015,06,28,12,02,27.50
2015,06,28,12,03,27.60
2015,06,28,12,04,27.60
2015,06,28,12,05,27.50
2015,06,28,12,06,27.50
2015,06,28,12,07,27.40
2015,06,28,12,08,27.40
2015,06,28,12,09,27.40
2015,06,28,12,10,27.50
2015,06,28,12,11,27.50
2015,06,28,12,12,27.60
2015,06,28,12,13,27.70
2015,06,28,12,14,27.80
2015,06,28,12,15,27.90
2015,06,28,12,16,28.10
2015,06,28,12,17,28.10
2015,06,28,12,18,28.20
2015,06,28,12,19,28.10
2015,06,28,12,20,28.10
2015,06,28,12,21,28.00
2015,06,28,12,22,28.00
2015,06,28,12,23,27.90
2015,06,28,12,24,27.90
2015,06,28,12,25,27.80
2015,06,28,12,26,27.70
2015,06,28,12,27,27.70
2015,06,28,12,28,27.60
2015,06,28,12,29,27.60
2015,06,28,12,30,27.50
2015,06,28,12,31,27.40
2015,06,28,12,32,27.40
2015,06,28,12,33,27.40
2015,06,28,12,34,27.40
2015,06,28,12,35,27.40
2015,06,28,12,36,27.40
2015,06,28,12,37,27.30
2015,06,28,12,38,27.30
2015,06,28,12,39,27.30
2015,06,28,12,40,27.20
2015,06,28,12,41,27.20
2015,06,28,12,42,27.10
2015,06,28,12,43,27.00
2015,06,28,12,44,27.00
2015,06,28,12,45,26.90
2015,06,28,12,46,26.90
2015,06,28,12,47,26.90
2015,06,28,12,48,26.80
2015,06,28,12,49,26.80
2015,06,28,12,50,26.70
2015,06,28,12,51,26.70
2015,06,28,12,52,26.70
2015,06,28,12,53,26.70
2015,06,28,12,54,26.70
2015,06,28,12,55,26.70
2015,06,28,12,56,26.70
2015,06,28,12,57,26.70
2015,06,28,12,58,26.70
2015,06,28,12,59,26.70
2015,06,28,13,00,26.80
2015,06,28,13,01,26.80
2015,06,28,13,02,26.90
2015,06,28,13,03,27.00
2015,06,28,13,04,27.10
2015,06,28,13,05,27.30
2015,06,28,13,06,27.40
2015,06,28,13,07,27.60
2015,06,28,13,08,27.70
2015,06,28,13,09,27.80
2015,06,28,13,10,27.90
2015,06,28,13,11,28.00
2015,06,28,13,12,28.10
2015,06,28,13,13,28.10
2015,06,28,13,14,28.20
2015,06,28,13,15,28.30
2015,06,28,13,16,28.30
2015,06,28,13,17,28.40
2015,06,28,13,18,28.40
2015,06,28,13,19,28.40
2015,06,28,13,20,28.50
2015,06,28,13,21,28.50
2015,06,28,13,22,28.50
2015,06,28,13,23,28.50
2015,06,28,13,24,28.50
2015,06,28,13,25,28.50
2015,06,28,13,26,28.50
2015,06,28,13,27,28.50
2015,06,28,13,28,28.50
2015,06,28,13,29,28.40
2015,06,28,13,30,28.40
2015,06,28,13,31,28.40
2015,06,28,13,32,28.50
2015,06,28,13,33,28.60
2015,06,28,13,34,28.60
2015,06,28,13,35,28.70
2015,06,28,13,36,28.70
2015,06,28,13,37,28.70
2015,06,28,13,38,28.70
2015,06,28,13,39,28.70
2015,06,28,13,40,28.70
2015,06,28,13,41,28.80
2015,06,28,13,42,28.80
2015,06,28,13,43,28.80
2015,06,28,13,44,28.80
2015,06,28,13,45,28.80
2015,06,28,13,46,28.70
2015,06,28,13,47,28.70
2015,06,28,13,48,28.70
2015,06,28,13,49,28.70
2015,06,28,13,50,28.70
2015,06,28,13,51,28.70
2015,06,28,13,52,28.70
2015,06,28,13,53,28.70
2015,06,28,13,54,28.70
2015,06,28,13,55,28.70
2015,06,28,13,56,28.70
2015,06,28,13,57,28.70
2015,06,28,13,58,28.70
2015,06,28,13,59,28.80
2015,06,28,14,00,28.80
2015,06,28,14,01,28.80
2015,06,28,14,02,28.90
2015,06,28,14,03,28.90
2015,06,28,14,04,28.90
2015,06,28,14,05,29.00
2015,06,28,14,06,29.10
2015,06,28,14,07,29.10
2015,06,28,14,08,29.20
2015,06,28,14,09,29.20
2015,06,28,14,10,29.30
2015,06,28,14,11,29.30
2015,06,28,14,12,29.30
2015,06,28,14,13,29.30
2015,06,28,14,14,29.30
2015,06,28,14,15,29.30
2015,06,28,14,16,29.30
2015,06,28,14,17,29.30
2015,06,28,14,18,29.30
2015,06,28,14,19,29.30
2015,06,28,14,20,29.30
2015,06,28,14,21,29.30
2015,06,28,14,22,29.30
2015,06,28,14,23,29.30
2015,06,28,14,24,29.30
2015,06,28,14,25,29.30
2015,06,28,14,26,29.30
2015,06,28,14,27,29.30
2015,06,28,14,28,29.30
2015,06,28,14,29,29.30
2015,06,28,14,30,29.30
2015,06,28,14,31,29.40
2015,06,28,14,32,29.40
2015,06,28,14,33,29.40
2015,06,28,14,34,29.40
2015,06,28,14,35,29.50
2015,06,28,14,36,29.50
2015,06,28,14,37,29.60
2015,06,28,14,38,29.60
2015,06,28,14,39,29.70
2015,06,28,14,40,29.70
2015,06,28,14,41,29.80
2015,06,28,14,42,29.80
2015,06,28,14,43,29.90
2015,06,28,14,44,30.00
2015,06,28,14,45,30.00
2015,06,28,14,46,30.10
2015,06,28,14,47,30.10
2015,06,28,14,48,30.10
2015,06,28,14,49,30.10
2015,06,28,14,50,30.10
2015,06,28,14,51,30.20
2015,06,28,14,52,30.20
2015,06,28,14,53,30.30
2015,06,28,14,54,30.30
2015,06,28,14,55,30.40
2015,06,28,14,56,30.40
2015,06,28,14,57,30.40
2015,06,28,14,58,30.40
2015,06,28,14,59,30.50
2015,06,28,15,00,30.60
2015,06,28,15,01,30.60
2015,06,28,15,02,30.60
2015,06,28,15,03,30.60
2015,06,28,15,04,30.60
2015,06,28,15,05,30.70
2015,06,28,15,06,30.80
2015,06,28,15,07,30.80
2015,06,28,15,08,30.80
2015,06,28,15,09,30.70
2015,06,28,15,10,30.60
2015,06,28,15,11,30.60
2015,06,28,15,12,30.50
2015,06,28,15,13,30.50
2015,06,28,15,14,30.40
2015,06,28,15,15,30.40
2015,06,28,15,16,30.30
2015,06,28,15,17,30.30
2015,06,28,15,18,30.30
2015,06,28,15,19,30.20
2015,06,28,15,20,30.20
2015,06,28,15,21,30.20
2015,06,28,15,22,30.20
2015,06,28,15,23,30.20
2015,06,28,15,24,30.10
2015,06,28,15,25,30.10
2015,06,28,15,26,30.10
2015,06,28,15,27,30.10
2015,06,28,15,28,30.20
2015,06,28,15,29,30.20
2015,06,28,15,30,30.20
2015,06,28,15,31,30.20
2015,06,28,15,32,30.20
2015,06,28,15,33,30.20
2015,06,28,15,34,30.20
2015,06,28,15,35,30.20
2015,06,28,15,36,30.20
2015,06,28,15,37,30.20
2015,06,28,15,38,30.20
2015,06,28,15,39,30.20
2015,06,28,15,40,30.10
2015,06,28,15,41,30.10
2015,06,28,15,42,30.10
2015,06,28,15,43,30.10
2015,06,28,15,44,30.10
2015,06,28,15,45,30.10
2015,06,28,15,46,30.00
2015,06,28,15,47,30.00
2015,06,28,15,48,30.00
2015,06,28,15,49,30.10
2015,06,28,15,50,30.10
2015,06,28,15,51,30.20
2015,06,28,15,52,30.20
2015,06,28,15,53,30.30
2015,06,28,15,54,30.40
2015,06,28,15,55,30.40
2015,06,28,15,56,30.50
2015,06,28,15,57,30.60
2015,06,28,15,58,30.60
2015,06,28,15,59,30.70
2015,06,28,16,00,30.80
2015,06,28,16,01,30.80
2015,06,28,16,02,30.80
2015,06,28,16,03,30.80
2015,06,28,16,04,30.90
2015,06,28,16,05,30.90
2015,06,28,16,06,31.00
2015,06,28,16,07,31.00
2015,06,28,16,08,31.10
2015,06,28,16,09,31.10
2015,06,28,16,10,31.10
2015,06,28,16,11,31.00
2015,06,28,16,12,31.10
2015,06,28,16,13,31.00
2015,06,28,16,14,31.00
2015,06,28,16,15,31.00
2015,06,28,16,16,30.90
2015,06,28,16,17,30.90
2015,06,28,16,18,30.80
2015,06,28,16,19,30.80
2015,06,28,16,20,30.80
2015,06,28,16,21,30.70
2015,06,28,16,22,30.70
2015,06,28,16,23,30.60
2015,06,28,16,24,30.60
2015,06,28,16,25,30.60
2015,06,28,16,26,30.50
2015,06,28,16,27,30.30
2015,06,28,16,28,30.30
2015,06,28,16,29,30.30
2015,06,28,16,30,30.20
2015,06,28,16,31,30.20
2015,06,28,16,32,30.20
2015,06,28,16,33,30.10
2015,06,28,16,34,30.00
2015,06,28,16,35,29.90
2015,06,28,16,36,29.70
2015,06,28,16,37,29.60
2015,06,28,16,38,29.40
2015,06,28,16,39,29.30
2015,06,28,16,40,29.20
2015,06,28,16,41,29.10
2015,06,28,16,42,29.10
2015,06,28,16,43,29.10
2015,06,28,16,44,29.10
2015,06,28,16,45,29.10
2015,06,28,16,46,29.10
2015,06,28,16,47,29.10
2015,06,28,16,48,29.20
2015,06,28,16,49,29.20
2015,06,28,16,50,29.20
2015,06,28,16,51,29.10
2015,06,28,16,52,29.10
2015,06,28,16,53,29.10
2015,06,28,16,54,29.10
2015,06,28,16,55,29.10
2015,06,28,16,56,29.10
2015,06,28,16,57,29.10
2015,06,28,16,58,29.10
2015,06,28,16,59,29.00
2015,06,28,17,00,29.00
2015,06,28,17,01,28.90
2015,06,28,17,02,28.90
2015,06,28,17,03,28.90
2015,06,28,17,04,28.90
2015,06,28,17,05,28.90
2015,06,28,17,06,28.80
2015,06,28,17,07,28.80
2015,06,28,17,08,28.80
2015,06,28,17,09,28.70
2015,06,28,17,10,28.60
2015,06,28,17,11,28.60
2015,06,28,17,12,28.50
2015,06,28,17,13,28.40
2015,06,28,17,14,28.30
2015,06,28,17,15,28.20
2015,06,28,17,16,28.20
2015,06,28,17,17,28.20
2015,06,28,17,18,28.20
2015,06,28,17,19,28.20